19-09-2022, 00:00:07,    333,    0.0,   10.2,   0.00,   0.00, 1019.2,   86.6, -999.0
19-09-2022, 00:00:16,    333,    0.0,   10.1,   0.00,   0.00, 1019.1,   86.6, -999.0
19-09-2022, 00:00:26,    333,    0.0,   10.2,   0.00,   0.00, 1019.1,   86.6, -999.0
19-09-2022, 00:00:37,    333,    0.0,   10.2,   0.00,   0.00, 1019.1,   86.6, -999.0
19-09-2022, 00:00:46,    333,    0.0,   10.2,   0.00,   0.00, 1019.1,   86.6, -999.0
19-09-2022, 00:00:56,    333,    0.0,   10.2,   0.00,   0.00, 1019.1,   86.6, -999.0
19-09-2022, 00:01:06,    333,    0.0,   10.2,   0.00,   0.00, 1019.1,   86.6, -999.0
19-09-2022, 00:01:16,    333,    0.0,   10.1,   0.00,   0.00, 1019.1,   86.5, -999.0
19-09-2022, 00:01:26,    333,    0.0,   10.1,   0.00,   0.00, 1019.1,   86.4, -999.0
19-09-2022, 00:01:36,    333,    0.0,   10.2,   0.00,   0.00, 1019.1,   86.5, -999.0
19-09-2022, 00:01:46,    333,    0.0,   10.2,   0.00,   0.00, 1019.1,   86.5, -999.0
19-09-2022, 00:01:56,    333,    0.0,   10.2,   0.00,   0.00, 1019.1,   86.5, -999.0
19-09-2022, 00:02:06,    333,    0.0,   10.2,   0.00,   0.00, 1019.1,   86.6, -999.0
19-09-2022, 00:02:16,    333,    0.0,   10.1,   0.00,   0.00, 1019.1,   86.5, -999.0
19-09-2022, 00:02:26,    333,    0.0,   10.1,   0.00,   0.00, 1019.1,   86.5, -999.0
19-09-2022, 00:02:36,    333,    0.0,   10.2,   0.00,   0.00, 1019.1,   86.5, -999.0
19-09-2022, 00:02:46,    333,    0.0,   10.1,   0.00,   0.00, 1019.1,   86.4, -999.0
19-09-2022, 00:02:56,    333,    0.0,   10.2,   0.00,   0.00, 1019.1,   86.6, -999.0
19-09-2022, 00:03:06,    333,    0.0,   10.1,   0.00,   0.00, 1019.1,   86.7, -999.0
19-09-2022, 00:03:16,    333,    0.0,   10.2,   0.00,   0.00, 1019.1,   86.7, -999.0
19-09-2022, 00:03:25,    333,    0.0,   10.2,   0.00,   0.00, 1019.1,   86.7, -999.0
19-09-2022, 00:03:35,    333,    0.0,   10.2,   0.00,   0.00, 1019.1,   86.7, -999.0
19-09-2022, 00:03:46,    333,    0.0,   10.2,   0.00,   0.00, 1019.1,   86.7, -999.0
19-09-2022, 00:03:55,    333,    0.0,   10.1,   0.00,   0.00, 1019.1,   86.7, -999.0
19-09-2022, 00:04:05,    333,    0.0,   10.2,   0.00,   0.00, 1019.1,   86.6, -999.0
19-09-2022, 00:04:15,    333,    0.0,   10.2,   0.00,   0.00, 1019.1,   86.6, -999.0
19-09-2022, 00:04:25,    333,    0.0,   10.3,   0.00,   0.00, 1019.1,   86.5, -999.0
19-09-2022, 00:04:35,    333,    0.0,   10.2,   0.00,   0.00, 1019.1,   86.6, -999.0
19-09-2022, 00:04:45,    333,    0.0,   10.2,   0.00,   0.00, 1019.1,   86.5, -999.0
19-09-2022, 00:04:55,    333,    0.0,   10.2,   0.00,   0.00, 1019.1,   86.5, -999.0
19-09-2022, 00:05:05,    333,    0.0,   10.2,   0.00,   0.00, 1019.1,   86.4, -999.0
19-09-2022, 00:05:15,    333,    0.0,   10.2,   0.00,   0.00, 1019.1,   86.4, -999.0
19-09-2022, 00:05:25,    333,    0.0,   10.3,   0.00,   0.00, 1019.1,   86.4, -999.0
19-09-2022, 00:05:35,    333,    0.0,   10.3,   0.00,   0.00, 1019.1,   86.4, -999.0
19-09-2022, 00:05:45,    333,    0.0,   10.2,   0.00,   0.00, 1019.1,   86.5, -999.0
19-09-2022, 00:05:55,    333,    0.0,   10.3,   0.00,   0.00, 1019.1,   86.4, -999.0
19-09-2022, 00:06:05,    333,    0.0,   10.2,   0.00,   0.00, 1019.1,   86.4, -999.0
19-09-2022, 00:06:15,    333,    0.0,   10.2,   0.00,   0.00, 1019.1,   86.4, -999.0
19-09-2022, 00:06:25,    333,    0.0,   10.3,   0.00,   0.00, 1019.1,   86.3, -999.0
19-09-2022, 00:06:34,    333,    0.0,   10.3,   0.00,   0.00, 1019.1,   86.4, -999.0
19-09-2022, 00:06:44,    333,    0.0,   10.3,   0.00,   0.00, 1019.1,   86.3, -999.0
19-09-2022, 00:06:55,    333,    0.0,   10.1,   0.00,   0.00, 1019.1,   86.3, -999.0
19-09-2022, 00:07:04,    333,    0.0,   10.2,   0.00,   0.00, 1019.1,   86.4, -999.0
19-09-2022, 00:07:14,    333,    0.0,   10.2,   0.00,   0.00, 1019.1,   86.2, -999.0
19-09-2022, 00:07:25,    333,    0.0,   10.2,   0.00,   0.00, 1019.1,   86.3, -999.0
19-09-2022, 00:07:34,    333,    0.0,   10.2,   0.00,   0.00, 1019.1,   86.3, -999.0
19-09-2022, 00:07:44,    333,    0.0,   10.2,   0.00,   0.00, 1019.1,   86.3, -999.0
19-09-2022, 00:07:54,    333,    0.0,   10.2,   0.00,   0.00, 1019.1,   86.3, -999.0
19-09-2022, 00:08:04,    333,    0.0,   10.2,   0.00,   0.00, 1019.1,   86.3, -999.0
19-09-2022, 00:08:14,    333,    0.0,   10.2,   0.00,   0.00, 1019.1,   86.4, -999.0
19-09-2022, 00:08:24,    333,    0.0,   10.2,   0.00,   0.00, 1019.0,   86.3, -999.0
19-09-2022, 00:08:34,    333,    0.0,   10.2,   0.00,   0.00, 1019.1,   86.3, -999.0
19-09-2022, 00:08:44,    333,    0.0,   10.2,   0.00,   0.00, 1019.1,   86.2, -999.0
19-09-2022, 00:08:54,    333,    0.0,   10.2,   0.00,   0.00, 1019.1,   86.2, -999.0
19-09-2022, 00:09:04,    333,    0.0,   10.2,   0.00,   0.00, 1019.1,   86.3, -999.0
19-09-2022, 00:09:14,    333,    0.0,   10.2,   0.00,   0.00, 1019.1,   86.2, -999.0
19-09-2022, 00:09:24,    333,    0.0,   10.2,   0.00,   0.00, 1019.1,   86.2, -999.0
19-09-2022, 00:09:34,    333,    0.0,   10.2,   0.00,   0.00, 1019.1,   86.3, -999.0
19-09-2022, 00:09:43,    333,    0.0,   10.2,   0.00,   0.00, 1019.1,   86.2, -999.0
19-09-2022, 00:09:54,    333,    0.0,   10.3,   0.00,   0.00, 1019.1,   86.3, -999.0
19-09-2022, 00:10:04,    333,    0.0,   10.3,   0.00,   0.00, 1019.0,   86.3, -999.0
19-09-2022, 00:10:13,    333,    0.0,   10.3,   0.00,   0.00, 1019.0,   86.4, -999.0
19-09-2022, 00:10:23,    333,    0.0,   10.3,   0.00,   0.00, 1019.1,   86.3, -999.0
19-09-2022, 00:10:34,    333,    0.0,   10.3,   0.00,   0.00, 1019.1,   86.3, -999.0
19-09-2022, 00:10:44,    333,    0.0,   10.3,   0.00,   0.00, 1019.1,   86.3, -999.0
19-09-2022, 00:10:53,    333,    0.0,   10.2,   0.00,   0.00, 1019.1,   86.2, -999.0
19-09-2022, 00:11:03,    333,    0.0,   10.3,   0.00,   0.00, 1019.1,   86.3, -999.0
19-09-2022, 00:11:13,    333,    0.0,   10.3,   0.00,   0.00, 1019.1,   86.2, -999.0
19-09-2022, 00:11:23,    333,    0.0,   10.2,   0.00,   0.00, 1019.1,   86.1, -999.0
19-09-2022, 00:11:33,    333,    0.0,   10.2,   0.00,   0.00, 1019.1,   86.0, -999.0
19-09-2022, 00:11:43,    333,    0.0,   10.3,   0.00,   0.00, 1019.1,   86.0, -999.0
19-09-2022, 00:11:53,    333,    0.0,   10.2,   0.00,   0.00, 1019.1,   85.9, -999.0
19-09-2022, 00:12:03,    333,    0.0,   10.3,   0.00,   0.00, 1019.1,   85.9, -999.0
19-09-2022, 00:12:13,    333,    0.0,   10.3,   0.00,   0.00, 1019.1,   85.7, -999.0
19-09-2022, 00:12:23,    333,    0.0,   10.3,   0.00,   0.00, 1019.1,   85.9, -999.0
19-09-2022, 00:12:33,    333,    0.0,   10.2,   0.00,   0.00, 1019.1,   85.9, -999.0
19-09-2022, 00:12:43,    333,    0.0,   10.3,   0.00,   0.00, 1019.1,   85.8, -999.0
19-09-2022, 00:12:53,    333,    0.0,   10.3,   0.00,   0.00, 1019.1,   85.9, -999.0
19-09-2022, 00:13:03,    333,    0.0,   10.3,   0.00,   0.00, 1019.1,   85.9, -999.0
19-09-2022, 00:13:12,    333,    0.0,   10.3,   0.00,   0.00, 1019.1,   85.8, -999.0
19-09-2022, 00:13:22,    333,    0.0,   10.3,   0.00,   0.00, 1019.1,   85.9, -999.0
19-09-2022, 00:13:33,    333,    0.0,   10.3,   0.00,   0.00, 1019.1,   86.0, -999.0
19-09-2022, 00:13:42,    333,    0.0,   10.3,   0.00,   0.00, 1019.1,   85.9, -999.0
19-09-2022, 00:13:52,    333,    0.0,   10.3,   0.00,   0.00, 1019.1,   85.8, -999.0
19-09-2022, 00:14:02,    333,    0.0,   10.3,   0.00,   0.00, 1019.1,   85.8, -999.0
19-09-2022, 00:14:12,    333,    0.0,   10.3,   0.00,   0.00, 1019.1,   85.8, -999.0
19-09-2022, 00:14:22,    333,    0.0,   10.3,   0.00,   0.00, 1019.1,   85.8, -999.0
19-09-2022, 00:14:32,    333,    0.0,   10.2,   0.00,   0.00, 1019.2,   85.7, -999.0
19-09-2022, 00:14:42,    333,    0.0,   10.3,   0.00,   0.00, 1019.1,   85.7, -999.0
19-09-2022, 00:14:52,    333,    0.0,   10.3,   0.00,   0.00, 1019.1,   85.7, -999.0
19-09-2022, 00:15:02,    333,    0.0,   10.3,   0.00,   0.00, 1019.2,   85.6, -999.0
19-09-2022, 00:15:12,    333,    0.0,   10.3,   0.00,   0.00, 1019.1,   85.6, -999.0
19-09-2022, 00:15:22,    333,    0.0,   10.3,   0.00,   0.00, 1019.1,   85.6, -999.0
19-09-2022, 00:15:32,    333,    0.0,   10.3,   0.00,   0.00, 1019.2,   85.6, -999.0
19-09-2022, 00:15:42,    333,    0.0,   10.3,   0.00,   0.00, 1019.1,   85.5, -999.0
19-09-2022, 00:15:52,    333,    0.0,   10.3,   0.00,   0.00, 1019.1,   85.5, -999.0
19-09-2022, 00:16:02,    333,    0.0,   10.3,   0.00,   0.00, 1019.1,   85.6, -999.0
19-09-2022, 00:16:12,    333,    0.0,   10.4,   0.00,   0.00, 1019.1,   85.6, -999.0
19-09-2022, 00:16:21,    333,    0.0,   10.3,   0.00,   0.00, 1019.1,   85.6, -999.0
19-09-2022, 00:16:31,    333,    0.0,   10.3,   0.00,   0.00, 1019.1,   85.5, -999.0
19-09-2022, 00:16:42,    333,    0.0,   10.4,   0.00,   0.00, 1019.2,   85.6, -999.0
19-09-2022, 00:16:51,    333,    0.0,   10.4,   0.00,   0.00, 1019.2,   85.5, -999.0
19-09-2022, 00:17:01,    333,    0.0,   10.4,   0.00,   0.00, 1019.2,   85.6, -999.0
19-09-2022, 00:17:11,    333,    0.0,   10.4,   0.00,   0.00, 1019.2,   85.5, -999.0
19-09-2022, 00:17:21,    333,    0.0,   10.4,   0.00,   0.00, 1019.2,   85.5, -999.0
19-09-2022, 00:17:31,    333,    0.0,   10.4,   0.00,   0.00, 1019.2,   85.4, -999.0
19-09-2022, 00:17:41,    333,    0.0,   10.4,   0.00,   0.00, 1019.2,   85.5, -999.0
19-09-2022, 00:17:51,    333,    0.0,   10.4,   0.00,   0.00, 1019.2,   85.5, -999.0
19-09-2022, 00:18:01,    332,    0.0,   10.4,   0.00,   0.00, 1019.2,   85.5, -999.0
19-09-2022, 00:18:11,    333,    0.0,   10.4,   0.00,   0.00, 1019.1,   85.5, -999.0
19-09-2022, 00:18:21,    333,    0.0,   10.4,   0.00,   0.00, 1019.2,   85.4, -999.0
19-09-2022, 00:18:31,    333,    0.0,   10.4,   0.00,   0.00, 1019.2,   85.4, -999.0
19-09-2022, 00:18:41,    333,    0.0,   10.4,   0.00,   0.00, 1019.2,   85.4, -999.0
19-09-2022, 00:18:51,    333,    0.0,   10.4,   0.00,   0.00, 1019.2,   85.5, -999.0
19-09-2022, 00:19:01,    333,    0.0,   10.4,   0.00,   0.00, 1019.2,   85.4, -999.0
19-09-2022, 00:19:11,    336,    0.0,   10.4,   0.00,   0.00, 1019.1,   85.4, -999.0
19-09-2022, 00:19:21,    333,    0.0,   10.5,   0.00,   0.00, 1019.2,   85.4, -999.0
19-09-2022, 00:19:30,    333,    0.0,   10.4,   0.00,   0.00, 1019.1,   85.4, -999.0
19-09-2022, 00:19:40,    333,    0.0,   10.4,   0.00,   0.00, 1019.1,   85.4, -999.0
19-09-2022, 00:19:51,    333,    0.0,   10.5,   0.00,   0.00, 1019.2,   85.3, -999.0
19-09-2022, 00:20:10,    333,    0.0,   10.5,   0.00,   0.00, 1019.1,   85.3, -999.0
19-09-2022, 00:20:21,    333,    0.0,   10.5,   0.00,   0.00, 1019.2,   85.2, -999.0
19-09-2022, 00:20:30,    333,    0.0,   10.5,   0.00,   0.00, 1019.2,   85.1, -999.0
19-09-2022, 00:20:40,    333,    0.0,   10.5,   0.00,   0.00, 1019.2,   85.0, -999.0
19-09-2022, 00:20:50,    333,    0.0,   10.4,   0.00,   0.00, 1019.2,   84.9, -999.0
19-09-2022, 00:21:00,    333,    0.0,   10.4,   0.00,   0.00, 1019.2,   84.9, -999.0
19-09-2022, 00:21:10,    333,    0.0,   10.5,   0.00,   0.00, 1019.2,   84.9, -999.0
19-09-2022, 00:21:20,    333,    0.0,   10.4,   0.00,   0.00, 1019.2,   84.9, -999.0
19-09-2022, 00:21:30,    333,    0.0,   10.4,   0.00,   0.00, 1019.2,   84.8, -999.0
19-09-2022, 00:21:40,    333,    0.0,   10.5,   0.00,   0.00, 1019.2,   84.8, -999.0
19-09-2022, 00:21:50,    333,    0.0,   10.5,   0.00,   0.00, 1019.2,   84.8, -999.0
19-09-2022, 00:22:00,    333,    0.0,   10.5,   0.00,   0.00, 1019.2,   84.9, -999.0
19-09-2022, 00:22:09,    333,    0.0,   10.5,   0.00,   0.00, 1019.2,   84.8, -999.0
19-09-2022, 00:22:20,    333,    0.0,   10.6,   0.00,   0.00, 1019.2,   84.7, -999.0
19-09-2022, 00:22:30,    333,    0.0,   10.5,   0.00,   0.00, 1019.2,   84.8, -999.0
19-09-2022, 00:22:39,    333,    0.0,   10.5,   0.00,   0.00, 1019.2,   84.6, -999.0
19-09-2022, 00:22:50,    333,    0.0,   10.5,   0.00,   0.00, 1019.2,   84.6, -999.0
19-09-2022, 00:23:00,    333,    0.0,   10.5,   0.00,   0.00, 1019.2,   84.5, -999.0
19-09-2022, 00:23:09,    333,    0.0,   10.5,   0.00,   0.00, 1019.2,   84.5, -999.0
19-09-2022, 00:23:19,    333,    0.0,   10.5,   0.00,   0.00, 1019.2,   84.4, -999.0
19-09-2022, 00:23:30,    333,    0.0,   10.5,   0.00,   0.00, 1019.2,   84.4, -999.0
19-09-2022, 00:23:39,    333,    0.0,   10.5,   0.00,   0.00, 1019.2,   84.4, -999.0
19-09-2022, 00:23:49,    332,    0.0,   10.5,   0.00,   0.00, 1019.2,   84.3, -999.0
19-09-2022, 00:23:59,    333,    0.0,   10.5,   0.00,   0.00, 1019.2,   84.4, -999.0
19-09-2022, 00:24:09,    333,    0.0,   10.5,   0.00,   0.00, 1019.2,   84.3, -999.0
19-09-2022, 00:24:19,    333,    0.0,   10.5,   0.00,   0.00, 1019.2,   84.4, -999.0
19-09-2022, 00:24:29,    333,    0.0,   10.4,   0.00,   0.00, 1019.2,   84.4, -999.0
19-09-2022, 00:24:39,    333,    0.0,   10.3,   0.00,   0.00, 1019.2,   84.4, -999.0
19-09-2022, 00:24:49,    333,    0.0,   10.4,   0.00,   0.00, 1019.2,   84.4, -999.0
19-09-2022, 00:24:59,    333,    0.0,   10.4,   0.00,   0.00, 1019.2,   84.4, -999.0
19-09-2022, 00:25:09,    333,    0.0,   10.4,   0.00,   0.00, 1019.2,   84.4, -999.0
19-09-2022, 00:25:19,    333,    0.0,   10.4,   0.00,   0.00, 1019.2,   84.5, -999.0
19-09-2022, 00:25:29,    333,    0.0,   10.3,   0.00,   0.00, 1019.2,   84.4, -999.0
19-09-2022, 00:25:39,    333,    0.3,   10.4,   0.00,   0.00, 1019.2,   84.6, -999.0
19-09-2022, 00:25:48,     27,    0.6,   10.5,   0.00,   0.00, 1019.3,   84.8, -999.0
19-09-2022, 00:25:59,     26,    0.0,   10.4,   0.00,   0.00, 1019.2,   84.5, -999.0
19-09-2022, 00:26:09,     27,    0.0,   10.4,   0.00,   0.00, 1019.2,   84.5, -999.0
19-09-2022, 00:26:18,     27,    0.0,   10.4,   0.00,   0.00, 1019.2,   84.6, -999.0
19-09-2022, 00:26:28,     27,    0.0,   10.4,   0.00,   0.00, 1019.2,   84.5, -999.0
19-09-2022, 00:26:39,     27,    0.0,   10.4,   0.00,   0.00, 1019.2,   84.6, -999.0
19-09-2022, 00:26:48,     27,    0.0,   10.4,   0.00,   0.00, 1019.2,   84.6, -999.0
19-09-2022, 00:26:58,     27,    0.0,   10.5,   0.00,   0.00, 1019.2,   84.7, -999.0
19-09-2022, 00:27:08,     27,    0.0,   10.3,   0.00,   0.00, 1019.2,   84.8, -999.0
19-09-2022, 00:27:18,     27,    0.0,   10.4,   0.00,   0.00, 1019.2,   84.5, -999.0
19-09-2022, 00:27:28,     27,    0.0,   10.3,   0.00,   0.00, 1019.2,   84.6, -999.0
19-09-2022, 00:27:38,     27,    0.0,   10.4,   0.00,   0.00, 1019.2,   84.6, -999.0
19-09-2022, 00:27:48,     27,    0.0,   10.3,   0.00,   0.00, 1019.2,   84.6, -999.0
19-09-2022, 00:27:58,     27,    0.0,   10.3,   0.00,   0.00, 1019.2,   84.6, -999.0
19-09-2022, 00:28:08,     26,    0.0,   10.3,   0.00,   0.00, 1019.2,   84.6, -999.0
19-09-2022, 00:28:18,     27,    0.0,   10.3,   0.00,   0.00, 1019.2,   84.6, -999.0
19-09-2022, 00:28:28,     27,    0.0,   10.3,   0.00,   0.00, 1019.2,   84.6, -999.0
19-09-2022, 00:28:38,     26,    0.0,   10.3,   0.00,   0.00, 1019.2,   84.7, -999.0
19-09-2022, 00:28:48,     27,    0.0,   10.3,   0.00,   0.00, 1019.2,   84.8, -999.0
19-09-2022, 00:28:57,     27,    0.0,   10.4,   0.00,   0.00, 1019.2,   84.9, -999.0
19-09-2022, 00:29:08,     27,    0.0,   10.3,   0.00,   0.00, 1019.2,   84.9, -999.0
19-09-2022, 00:29:18,     27,    0.0,   10.3,   0.00,   0.00, 1019.2,   85.0, -999.0
19-09-2022, 00:29:27,     26,    0.0,   10.3,   0.00,   0.00, 1019.2,   84.9, -999.0
19-09-2022, 00:29:37,     27,    0.0,   10.3,   0.00,   0.00, 1019.2,   84.9, -999.0
19-09-2022, 00:29:47,     27,    0.0,   10.4,   0.00,   0.00, 1019.2,   84.9, -999.0
19-09-2022, 00:29:57,     27,    0.0,   10.3,   0.00,   0.00, 1019.2,   85.0, -999.0
19-09-2022, 00:30:07,     24,    0.0,   10.2,   0.00,   0.00, 1019.2,   85.1, -999.0
19-09-2022, 00:30:17,     26,    0.0,   10.3,   0.00,   0.00, 1019.2,   85.2, -999.0
19-09-2022, 00:30:27,     27,    0.0,   10.3,   0.00,   0.00, 1019.2,   85.2, -999.0
19-09-2022, 00:30:37,     27,    0.0,   10.3,   0.00,   0.00, 1019.2,   85.1, -999.0
19-09-2022, 00:30:47,     27,    0.0,   10.3,   0.00,   0.00, 1019.2,   85.1, -999.0
19-09-2022, 00:30:57,     27,    0.0,   10.3,   0.00,   0.00, 1019.2,   85.2, -999.0
19-09-2022, 00:31:07,     27,    0.0,   10.3,   0.00,   0.00, 1019.2,   85.3, -999.0
19-09-2022, 00:31:17,     27,    0.0,   10.3,   0.00,   0.00, 1019.2,   85.3, -999.0
19-09-2022, 00:31:27,     27,    0.0,   10.3,   0.00,   0.00, 1019.2,   85.3, -999.0
19-09-2022, 00:31:37,     27,    0.0,   10.2,   0.00,   0.00, 1019.2,   85.5, -999.0
19-09-2022, 00:31:47,     27,    0.0,   10.3,   0.00,   0.00, 1019.2,   85.4, -999.0
19-09-2022, 00:31:57,     27,    0.0,   10.3,   0.00,   0.00, 1019.2,   85.4, -999.0
19-09-2022, 00:32:06,     27,    0.0,   10.2,   0.00,   0.00, 1019.2,   85.4, -999.0
19-09-2022, 00:32:17,     27,    0.0,   10.3,   0.00,   0.00, 1019.2,   85.5, -999.0
19-09-2022, 00:32:27,     27,    0.0,   10.3,   0.00,   0.00, 1019.2,   85.6, -999.0
19-09-2022, 00:32:36,     27,    0.0,   10.3,   0.00,   0.00, 1019.2,   85.6, -999.0
19-09-2022, 00:32:47,     27,    0.0,   10.3,   0.00,   0.00, 1019.2,   85.8, -999.0
19-09-2022, 00:32:56,     27,    0.0,   10.2,   0.00,   0.00, 1019.2,   85.7, -999.0
19-09-2022, 00:33:06,     27,    0.0,   10.2,   0.00,   0.00, 1019.2,   85.8, -999.0
19-09-2022, 00:33:16,     27,    0.0,   10.2,   0.00,   0.00, 1019.3,   85.8, -999.0
19-09-2022, 00:33:26,     27,    0.0,   10.2,   0.00,   0.00, 1019.2,   85.7, -999.0
19-09-2022, 00:33:36,     27,    0.0,   10.2,   0.00,   0.00, 1019.2,   85.7, -999.0
19-09-2022, 00:33:46,     27,    0.0,   10.1,   0.00,   0.00, 1019.2,   85.8, -999.0
19-09-2022, 00:33:56,     27,    0.0,   10.2,   0.00,   0.00, 1019.2,   85.9, -999.0
19-09-2022, 00:34:06,     27,    0.0,   10.2,   0.00,   0.00, 1019.2,   86.1, -999.0
19-09-2022, 00:34:16,     27,    0.0,   10.2,   0.00,   0.00, 1019.2,   86.0, -999.0
19-09-2022, 00:34:26,     27,    0.0,   10.2,   0.00,   0.00, 1019.2,   86.2, -999.0
19-09-2022, 00:34:36,     27,    0.0,   10.2,   0.00,   0.00, 1019.2,   86.2, -999.0
19-09-2022, 00:34:46,     27,    0.0,   10.2,   0.00,   0.00, 1019.2,   86.3, -999.0
19-09-2022, 00:34:56,     27,    0.0,   10.1,   0.00,   0.00, 1019.2,   86.3, -999.0
19-09-2022, 00:35:06,     27,    0.0,   10.2,   0.00,   0.00, 1019.2,   86.4, -999.0
19-09-2022, 00:35:16,     27,    0.0,   10.2,   0.00,   0.00, 1019.2,   86.4, -999.0
19-09-2022, 00:35:26,     27,    0.0,   10.1,   0.00,   0.00, 1019.2,   86.4, -999.0
19-09-2022, 00:35:35,     27,    0.0,   10.2,   0.00,   0.00, 1019.2,   86.4, -999.0
19-09-2022, 00:35:45,     27,    0.0,   10.2,   0.00,   0.00, 1019.2,   86.5, -999.0
19-09-2022, 00:35:56,     27,    0.0,   10.2,   0.00,   0.00, 1019.2,   86.5, -999.0
19-09-2022, 00:36:05,     27,    0.0,   10.2,   0.00,   0.00, 1019.2,   86.6, -999.0
19-09-2022, 00:36:15,     27,    0.0,   10.2,   0.00,   0.00, 1019.2,   86.7, -999.0
19-09-2022, 00:36:25,     26,    0.0,   10.2,   0.00,   0.00, 1019.2,   86.7, -999.0
19-09-2022, 00:36:35,     27,    0.0,   10.2,   0.00,   0.00, 1019.2,   86.7, -999.0
19-09-2022, 00:36:45,     26,    0.0,   10.2,   0.00,   0.00, 1019.2,   86.7, -999.0
19-09-2022, 00:36:55,     27,    0.0,   10.1,   0.00,   0.00, 1019.2,   86.9, -999.0
19-09-2022, 00:37:05,     27,    0.0,   10.1,   0.00,   0.00, 1019.2,   86.9, -999.0
19-09-2022, 00:37:15,     27,    0.0,   10.1,   0.00,   0.00, 1019.2,   87.0, -999.0
19-09-2022, 00:37:25,     27,    0.0,   10.2,   0.00,   0.00, 1019.2,   87.0, -999.0
19-09-2022, 00:37:35,     27,    0.0,   10.2,   0.00,   0.00, 1019.2,   87.1, -999.0
19-09-2022, 00:37:45,     27,    0.0,   10.2,   0.00,   0.00, 1019.2,   87.1, -999.0
19-09-2022, 00:37:55,     27,    0.0,   10.3,   0.00,   0.00, 1019.2,   87.1, -999.0
19-09-2022, 00:38:05,     27,    0.0,   10.2,   0.00,   0.00, 1019.2,   87.1, -999.0
19-09-2022, 00:38:15,     27,    0.0,   10.2,   0.00,   0.00, 1019.2,   87.1, -999.0
19-09-2022, 00:38:25,     26,    0.0,   10.2,   0.00,   0.00, 1019.2,   87.2, -999.0
19-09-2022, 00:38:35,     27,    0.0,   10.1,   0.00,   0.00, 1019.2,   87.2, -999.0
19-09-2022, 00:38:44,     26,    0.0,   10.1,   0.00,   0.00, 1019.2,   87.2, -999.0
19-09-2022, 00:38:54,     27,    0.0,   10.1,   0.00,   0.00, 1019.2,   87.2, -999.0
19-09-2022, 00:39:05,     27,    0.0,   10.2,   0.00,   0.00, 1019.2,   87.2, -999.0
19-09-2022, 00:39:14,     26,    0.0,   10.1,   0.00,   0.00, 1019.2,   87.3, -999.0
19-09-2022, 00:39:24,     26,    0.0,   10.1,   0.00,   0.00, 1019.2,   87.2, -999.0
19-09-2022, 00:39:34,     27,    0.0,   10.1,   0.00,   0.00, 1019.2,   87.2, -999.0
19-09-2022, 00:39:44,     27,    0.0,   10.1,   0.00,   0.00, 1019.2,   87.3, -999.0
19-09-2022, 00:39:54,     26,    0.0,   10.1,   0.00,   0.00, 1019.2,   87.3, -999.0
19-09-2022, 00:40:04,     27,    0.0,   10.1,   0.00,   0.00, 1019.2,   87.5, -999.0
19-09-2022, 00:40:14,     27,    0.0,   10.1,   0.00,   0.00, 1019.2,   87.6, -999.0
19-09-2022, 00:40:24,     27,    0.0,   10.0,   0.00,   0.00, 1019.2,   87.6, -999.0
19-09-2022, 00:40:34,     27,    0.0,   10.1,   0.00,   0.00, 1019.2,   87.6, -999.0
19-09-2022, 00:40:44,     27,    0.0,   10.1,   0.00,   0.00, 1019.2,   87.7, -999.0
19-09-2022, 00:40:54,     26,    0.0,   10.1,   0.00,   0.00, 1019.2,   87.8, -999.0
19-09-2022, 00:41:04,     27,    0.0,   10.2,   0.00,   0.00, 1019.2,   87.8, -999.0
19-09-2022, 00:41:14,     26,    0.0,   10.1,   0.00,   0.00, 1019.2,   87.8, -999.0
19-09-2022, 00:41:24,     27,    0.0,   10.1,   0.00,   0.00, 1019.2,   87.8, -999.0
19-09-2022, 00:41:34,     27,    0.0,   10.1,   0.00,   0.00, 1019.2,   87.8, -999.0
19-09-2022, 00:41:44,     27,    0.0,   10.0,   0.00,   0.00, 1019.2,   87.8, -999.0
19-09-2022, 00:41:53,     27,    0.0,   10.1,   0.00,   0.00, 1019.2,   87.8, -999.0
19-09-2022, 00:42:03,     27,    0.0,   10.1,   0.00,   0.00, 1019.2,   87.8, -999.0
19-09-2022, 00:42:14,     27,    0.0,   10.1,   0.00,   0.00, 1019.2,   87.9, -999.0
19-09-2022, 00:42:23,     27,    0.0,   10.1,   0.00,   0.00, 1019.2,   87.9, -999.0
19-09-2022, 00:42:33,     27,    0.0,   10.1,   0.00,   0.00, 1019.2,   87.9, -999.0
19-09-2022, 00:42:44,     27,    0.0,   10.1,   0.00,   0.00, 1019.2,   88.0, -999.0
19-09-2022, 00:42:53,     27,    0.0,   10.1,   0.00,   0.00, 1019.2,   88.0, -999.0
19-09-2022, 00:43:03,     27,    0.0,   10.1,   0.00,   0.00, 1019.2,   88.0, -999.0
19-09-2022, 00:43:13,     27,    0.0,   10.2,   0.00,   0.00, 1019.2,   88.1, -999.0
19-09-2022, 00:43:23,     27,    0.0,   10.1,   0.00,   0.00, 1019.2,   88.1, -999.0
19-09-2022, 00:43:33,     27,    0.0,   10.1,   0.00,   0.00, 1019.2,   88.2, -999.0
19-09-2022, 00:43:43,     27,    0.0,   10.1,   0.00,   0.00, 1019.2,   88.2, -999.0
19-09-2022, 00:43:53,     27,    0.0,   10.1,   0.00,   0.00, 1019.2,   88.1, -999.0
19-09-2022, 00:44:03,     27,    0.0,   10.1,   0.00,   0.00, 1019.2,   88.2, -999.0
19-09-2022, 00:44:13,     27,    0.0,   10.1,   0.00,   0.00, 1019.2,   88.2, -999.0
19-09-2022, 00:44:23,     27,    0.0,   10.1,   0.00,   0.00, 1019.2,   88.3, -999.0
19-09-2022, 00:44:33,     27,    0.0,   10.1,   0.00,   0.00, 1019.2,   88.3, -999.0
19-09-2022, 00:44:43,     27,    0.0,   10.1,   0.00,   0.00, 1019.2,   88.3, -999.0
19-09-2022, 00:44:53,     27,    0.0,   10.1,   0.00,   0.00, 1019.2,   88.3, -999.0
19-09-2022, 00:45:02,     27,    0.0,   10.0,   0.00,   0.00, 1019.2,   88.3, -999.0
19-09-2022, 00:45:13,     27,    0.0,   10.1,   0.00,   0.00, 1019.2,   88.4, -999.0
19-09-2022, 00:45:23,     27,    0.0,   10.0,   0.00,   0.00, 1019.2,   88.3, -999.0
19-09-2022, 00:45:32,     27,    0.0,   10.0,   0.00,   0.00, 1019.2,   88.3, -999.0
19-09-2022, 00:45:42,     27,    0.0,   10.1,   0.00,   0.00, 1019.2,   88.5, -999.0
19-09-2022, 00:45:53,     27,    0.0,   10.0,   0.00,   0.00, 1019.2,   88.3, -999.0
19-09-2022, 00:46:02,     27,    0.0,   10.0,   0.00,   0.00, 1019.2,   88.3, -999.0
19-09-2022, 00:46:12,     27,    0.0,   10.1,   0.00,   0.00, 1019.2,   88.3, -999.0
19-09-2022, 00:46:22,     28,    0.0,   10.0,   0.00,   0.00, 1019.2,   88.5, -999.0
19-09-2022, 00:46:32,     27,    0.0,   10.0,   0.00,   0.00, 1019.2,   88.5, -999.0
19-09-2022, 00:46:42,     27,    0.0,   10.0,   0.00,   0.00, 1019.2,   88.5, -999.0
19-09-2022, 00:46:52,     27,    0.0,   10.0,   0.00,   0.00, 1019.2,   88.4, -999.0